Regional Weather Roundup
Issued by NWS

Home | Current Version | Previous Version | Graphics & Text | Print | Product List | Glossary On
Versions: 1 2 3 4 5 6 7 8 9 10 11 12 13 14 15 16 17 18 19 20 21 22 23 24 25 26 27 28 29 30 31 32 33 34 35 36 37 38 39 40 41 42 43 44 45 46 47 48 49 50
154
ASUS43 KLSX 120957
RWRMO

WEATHER SUMMARY FOR MISSOURI
NATIONAL WEATHER SERVICE SPRINGFIELD MO
400 AM CST TUE DEC 12 2017

NOTE: "FAIR" INDICATES FEW OR NO CLOUDS BELOW 12,000 FEET WITH NO
       SIGNIFICANT WEATHER AND/OR OBSTRUCTIONS TO VISIBILITY.
       CURRENT SKY AND/OR WEATHER CONDITIONS ARE NOT AVAILABLE FOR
       CHILLICOTHE AND FARMINGTON.

MOZ001>031-035>038-043-044-053-054-121100-
...NORTHERN AND WESTERN MISSOURI...

CITY           SKY/WX    TMP DP  RH WIND       PRES   REMARKS
KANSAS CTY INT CLEAR     25  17  72 N12       30.32R WCI  14
LEE`S SUMMIT   CLEAR     27  19  72 NW10      30.31R WCI  17
ST JOSEPH      CLEAR     23  15  71 N12       30.36R WCI  12
CHILLICOTHE      N/A     21  14  74 NW8       30.31S WCI  11

$$
MOZ066>068-077>081-088>096-101>105-121100-
...SOUTHWEST MISSOURI...

CITY           SKY/WX    TMP DP  RH WIND       PRES   REMARKS
SPRINGFIELD    CLEAR     31  24  75 N17       30.23R WCI  19
JOPLIN         CLEAR     30  22  72 NW8       30.32R WCI  22

$$
MOZ032>034-039>042-045>050-055>058-069>072-121100-
...CENTRAL MISSOURI...

CITY           SKY/WX    TMP DP  RH WIND       PRES   REMARKS
COLUMBIA       NOT AVBL
JEFFERSON CITY PTCLDY    31  20  63 NW12G20   30.24R WCI  22
SEDALIA        CLEAR     27  19  72 N18G25    30.28R WCI  14
WARRENSBURG    CLEAR     28  19  69 NW14G21   30.29R WCI  17

$$
MOZ051-052-059>065-121100-
...EAST CENTRAL MISSOURI...

CITY           SKY/WX    TMP DP  RH WIND       PRES   REMARKS
ST LOUIS INTL  MOCLDY    36  23  59 NW20G28   30.12R WCI  25

$$
MOZ072>076-082>087-097>100-106>115-121100-
...SOUTH CENTRAL AND SOUTHEAST MISSOURI...

CITY           SKY/WX    TMP DP  RH WIND       PRES   REMARKS
CAPE GIRARDEAU CLOUDY    42  31  64 N16G32    30.07R
POPLAR BLUFF   CLOUDY    46  32  58 N16G22    30.07R
WEST PLAINS    FLURRIES  37  25  61 NW16G25   30.16R WCI  28

$$



USA.gov is the U.S. government's official web portal to all federal, state and local government web resources and services.